This is the latest recevied weather packets stored in our database for station/object W0DXV. If no packets are shown the sender has not sent any weather packets the latest 10 day(s).
| Time | Temp. | Humidity | Pressure | Rain* | Wind** | Luminosity | Snow |
|---|---|---|---|---|---|---|---|
| 1777659372 | 20.56° C | 43% | 1010 hPa | 0 mm | - | 689 W/m² | - |
| 1777659069 | 20° C | 43% | 1010.3 hPa | 0 mm | - | 396 W/m² | - |
| 1777658767 | 19.44° C | 45% | 1010.2 hPa | 0 mm | - | 747 W/m² | - |
| 1777658463 | 20.56° C | 43% | 1010.4 hPa | 0 mm | - | 429 W/m² | - |
| 1777658160 | 20° C | 43% | 1010.5 hPa | 0 mm | - | 833 W/m² | - |
| 1777657857 | 19.44° C | 42% | 1010.6 hPa | 0 mm | - | 826 W/m² | - |
| 1777657553 | 18.89° C | 44% | 1010.6 hPa | 0 mm | - | 773 W/m² | - |
| 1777657251 | 17.78° C | 45% | 1010.6 hPa | 0 mm | - | 763 W/m² | - |
| 1777656948 | 17.78° C | 45% | 1010.8 hPa | 0 mm | - | 746 W/m² | - |
| 1777656644 | 18.89° C | 45% | 1010.7 hPa | 0 mm | - | 760 W/m² | - |
| 1777656340 | 18.89° C | 43% | 1010.8 hPa | 0 mm | - | 764 W/m² | - |
| 1777656036 | 18.33° C | 44% | 1010.7 hPa | 0 mm | - | 759 W/m² | - |
| 1777655732 | 18.89° C | 45% | 1010.6 hPa | 0 mm | - | 771 W/m² | - |
| 1777655429 | 17.78° C | 47% | 1011 hPa | 0 mm | - | 765 W/m² | - |
| 1777655126 | 17.22° C | 48% | 1010.9 hPa | 0 mm | - | 777 W/m² | - |
| 1777654823 | 17.22° C | 48% | 1011.3 hPa | 0 mm | - | 637 W/m² | - |
| 1777654521 | 17.22° C | 46% | 1011.2 hPa | 0 mm | - | 803 W/m² | - |
| 1777654218 | 17.78° C | 45% | 1011.2 hPa | 0 mm | - | 773 W/m² | - |
| 1777653916 | 17.78° C | 48% | 1011.4 hPa | 0 mm | - | 826 W/m² | - |
| 1777653612 | 17.22° C | 50% | 1011.4 hPa | 0 mm | - | 748 W/m² | - |
| 1777653309 | 17.22° C | 46% | 1011.5 hPa | 0 mm | - | 586 W/m² | - |
| 1777653006 | 17.22° C | 51% | 1011.7 hPa | 0 mm | - | 455 W/m² | - |
| 1777652702 | 17.22° C | 47% | 1011.5 hPa | 0 mm | - | 434 W/m² | - |
| 1777652399 | 17.78° C | 48% | 1011.8 hPa | 0 mm | - | 461 W/m² | - |
| 1777652096 | 17.22° C | 48% | 1011.8 hPa | 0 mm | - | 694 W/m² | - |
* Rain latest hour (hover to see other rain measurements)
** Current wind speed in m/s (hover to see current wind gust speed)